Theta_e
307 307 306 304 302 302 301 301 301 301 301 301 301 301 302 302 304 304 303 306 299 294 297 297 297 293 292 291 286 292 292 295 293 288 287 286 284 288 288 290 289 287 285 286 287 284 281 297 293 286 293 296 297 297
307 306 303 302 301 301 301 300 300 300 300 301 301 301 302 301 302 303 300 308 305 296 295 302 302 301 300 298 293 292 293 292 295 293 293 290 287 289 288 285 295 288 291 287 288 287 298 299 297 300 299 297 299 300
306 303 301 301 300 300 300 299 300 300 300 300 301 301 302 304 304 303 300 305 302 296 294 297 300 304 306 305 303 290 294 298 296 299 294 293 288 293 288 289 291 294 297 291 292 295 296 298 301 300 301 300 301 302
303 301 300 300 300 299 299 299 299 300 300 300 301 301 302 302 303 302 300 302 301 295 288 297 305 302 307 306 304 300 299 302 302 297 292 292 290 297 291 295 294 297 298 294 293 296 297 298 300 300 299 301 302 303
300 300 299 299 299 299 299 299 299 300 300 301 301 302 303 302 303 303 301 301 301 295 290 293 301 305 306 305 303 303 300 298 295 293 291 290 295 296 298 297 295 299 296 293 291 297 297 297 301 301 297 299 303 301
299 299 299 299 299 299 299 299 299 300 300 301 302 303 302 302 302 300 295 304 303 301 291 287 302 301 303 305 303 301 300 297 295 294 292 294 299 295 293 293 299 300 302 303 298 301 302 301 301 301 299 302 303 302
298 298 298 298 298 298 299 299 299 300 301 302 302 302 301 302 302 297 297 302 305 303 293 288 290 303 303 303 299 298 299 297 296 294 292 294 296 298 295 292 300 301 302 303 303 302 299 300 298 302 303 304 305 305
298 298 298 298 298 298 298 299 300 302 301 302 302 300 301 305 303 298 303 304 304 297 295 288 290 298 304 300 298 302 297 296 296 295 296 294 298 299 291 299 301 302 302 302 302 302 301 303 301 302 303 303 302 303
297 297 297 297 298 298 298 298 300 301 302 301 299 300 303 301 298 301 304 304 303 297 291 290 288 290 303 302 305 298 299 291 298 292 293 297 297 293 298 300 300 302 301 301 302 302 300 300 299 301 301 300 300 302
296 297 297 297 297 298 298 298 299 300 301 299 298 299 297 299 301 303 301 297 294 295 294 289 296 292 298 298 298 299 297 292 290 295 299 296 295 301 303 304 304 304 303 303 300 298 299 298 298 299 299 300 300 302
297 297 297 297 297 298 298 298 299 300 300 296 293 291 297 301 301 299 292 292 292 289 292 294 295 292 299 292 293 301 296 294 290 295 295 294 295 300 303 304 306 304 304 304 304 302 302 302 299 298 297 299 299 300
297 297 297 297 298 298 298 299 299 297 296 295 295 296 295 294 293 289 289 293 291 289 296 295 294 294 295 301 297 298 291 292 288 299 294 292 300 302 304 304 304 305 304 304 304 301 302 303 301 298 297 297 298 299
297 297 297 297 297 298 298 298 298 298 299 297 293 289 289 292 284 283 283 287 289 295 299 295 294 297 294 295 296 292 290 291 299 293 291 297 302 304 304 305 305 306 305 305 304 302 303 303 302 298 296 296 297 298
296 297 297 297 297 297 297 297 298 298 295 290 287 283 287 286 288 291 291 291 295 296 296 296 296 298 294 291 291 289 295 296 289 286 290 299 301 304 305 305 305 304 304 304 303 301 301 300 301 300 296 299 297 296
296 296 297 297 296 296 297 297 298 298 293 287 287 281 286 292 293 294 295 294 295 295 294 293 293 296 294 290 289 288 288 287 290 291 299 301 304 306 305 305 305 304 305 304 304 301 300 301 300 299 299 299 298 298
296 296 297 295 295 296 297 298 298 296 291 289 287 285 289 288 289 290 292 291 295 294 295 294 290 291 291 292 287 288 289 287 292 300 302 303 306 307 307 306 306 306 305 306 304 302 301 300 300 299 298 296 295 295
295 295 294 295 296 297 297 294 291 286 286 285 288 292 290 289 288 290 291 292 296 293 290 292 287 287 297 289 287 292 290 294 298 301 303 305 305 307 308 307 307 307 306 306 304 302 301 302 301 299 296 295 294 294
295 297 295 296 297 296 296 294 288 286 282 287 286 288 289 290 289 290 292 294 293 292 292 290 294 289 288 286 290 296 299 301 304 304 305 306 307 307 308 308 308 308 307 306 304 302 302 302 301 299 299 298 296 294
295 296 296 296 296 294 289 290 293 285 287 289 289 290 290 290 292 293 293 294 294 295 293 292 289 288 290 294 293 296 298 298 298 300 303 307 309 307 307 308 309 309 308 306 305 303 302 302 302 301 301 300 297 297
295 295 294 295 295 292 285 289 295 288 285 288 290 289 289 289 292 292 293 294 293 293 289 287 288 291 290 292 295 297 298 301 300 300 300 302 306 308 308 308 309 309 308 308 305 298 302 301 302 302 301 299 298 297
294 295 294 295 295 293 289 289 288 289 288 287 290 289 287 290 290 291 291 293 293 290 289 292 293 295 298 298 297 297 297 299 298 301 301 300 304 307 309 309 309 309 308 306 304 301 299 301 301 302 301 299 298 297
295 293 295 294 290 289 289 293 288 290 288 288 288 289 286 286 288 290 293 290 288 287 288 288 288 291 293 294 294 296 297 297 298 299 299 301 302 304 307 308 308 307 307 307 306 304 302 302 302 301 300 298 298 299
294 294 293 290 285 285 284 293 285 287 283 285 287 284 285 286 289 292 288 287 287 289 289 289 289 291 292 294 295 296 294 293 294 296 297 300 306 306 308 310 309 308 307 308 308 306 303 295 297 300 299 299 298 297
293 289 284 285 285 282 288 286 289 286 287 284 283 281 283 286 288 287 284 286 287 290 288 288 289 288 290 291 290 290 291 292 291 293 297 297 299 306 308 310 308 309 309 309 307 306 303 302 296 300 299 298 298 297
282 281 283 279 285 282 280 282 282 283 280 283 280 281 285 288 285 283 282 284 286 286 287 287 287 287 286 288 289 289 292 290 288 288 291 297 298 304 306 308 309 311 311 309 306 304 303 301 301 300 299 298 298 297
277 281 281 282 284 281 283 279 279 280 282 280 282 286 288 286 282 280 282 285 285 285 285 285 285 285 286 287 286 286 288 289 288 287 291 296 301 302 304 305 305 307 311 310 307 304 303 302 301 300 299 296 289 295
277 280 285 289 288 287 284 285 285 283 280 280 283 282 283 279 279 282 286 287 285 286 288 289 289 286 286 286 287 288 289 287 286 287 292 294 297 305 305 305 305 309 310 309 308 306 304 302 301 300 299 298 297 296
285 285 282 285 284 285 280 282 280 280 283 288 286 280 278 277 279 284 286 288 288 289 289 290 291 290 289 288 287 287 287 286 287 292 299 295 298 300 301 308 310 291 309 310 308 307 306 304 303 301 299 297 297 297
284 288 287 281 282 282 283 282 283 287 290 288 284 283 281 283 285 284 286 288 288 287 286 286 288 290 290 290 288 287 286 285 281 281 283 285 287 288 294 299 304 307 309 308 290 299 306 305 304 302 301 299 298 297
285 289 284 282 281 282 287 290 289 291 291 291 288 286 285 285 286 288 287 288 286 285 286 286 287 286 285 286 285 285 286 284 283 281 280 282 283 285 290 296 300 302 306 307 305 299 288 299 295 301 299 298 296 295
289 288 284 285 284 289 290 292 291 290 289 288 288 286 284 284 286 287 285 286 287 286 285 285 285 285 284 284 283 282 282 285 284 283 284 284 285 285 288 293 297 298 301 302 301 301 300 300 299 298 297 296 294 292
287 285 285 282 285 290 291 288 287 286 286 285 285 287 285 285 281 283 284 284 284 283 282 283 284 284 286 286 286 286 283 285 285 284 283 284 284 285 289 291 292 296 295 295 296 297 298 300 299 297 295 294 292 292
286 286 286 287 286 285 286 287 284 283 284 283 283 285 284 282 278 282 286 286 284 283 284 286 287 287 287 285 285 286 285 286 285 284 284 284 283 284 288 290 290 290 289 290 290 291 291 294 295 295 294 292 291 290
Wind_Speed
12 12 10 12 13 14 14 14 14 15 15 14 13 13 12 12 12 6 6 4 4 5 15 19 17 11 6 5 3 8 9 3 5 4 2 4 3 4 4 8 7 3 5 3 4 5 4 13 9 4 6 16 14 15
11 9 10 11 13 13 14 14 15 14 15 15 15 14 12 10 11 9 6 1 3 5 8 20 23 23 24 22 7 3 6 6 4 4 2 3 4 4 5 5 6 3 5 3 3 4 11 9 12 10 11 14 16 13
8 10 10 12 13 14 14 15 16 16 16 16 15 14 15 13 11 9 7 7 3 6 9 11 6 5 6 12 12 5 5 5 4 3 2 3 6 2 4 5 6 7 3 4 11 7 13 11 10 11 15 18 15 15
7 9 10 12 13 14 15 15 16 17 17 18 17 15 15 14 12 9 7 7 3 4 5 3 3 10 14 8 14 20 7 1 2 1 3 4 4 3 4 8 11 10 8 9 9 10 15 4 16 14 16 18 14 13
7 8 10 12 14 15 16 17 18 18 18 19 18 17 16 16 14 11 8 8 9 4 5 9 21 8 4 5 15 16 18 13 3 2 3 3 4 4 6 7 8 3 7 6 8 13 13 17 18 15 16 18 15 9
6 8 10 12 14 16 17 17 19 20 20 19 20 20 21 18 12 4 4 2 7 6 4 5 7 6 5 6 8 12 11 8 4 3 3 4 4 4 5 6 8 5 6 8 10 13 15 16 17 16 14 16 12 9
6 8 10 12 14 16 17 19 20 21 21 21 23 24 22 14 8 6 3 3 5 5 3 5 5 5 3 3 3 4 9 4 4 3 5 4 4 6 4 9 13 6 5 9 8 13 16 16 16 12 13 12 12 12
6 8 10 12 14 16 18 19 21 21 22 24 25 20 14 2 4 5 7 9 4 2 3 4 5 6 5 3 4 5 4 5 5 3 3 3 3 5 5 9 6 5 7 8 13 12 13 15 14 15 12 11 14 13
6 8 10 12 14 16 18 20 22 22 24 26 22 13 5 3 3 1 3 4 5 4 3 4 3 4 3 4 1 3 3 4 3 4 5 6 5 7 8 7 5 6 7 10 13 13 14 14 16 16 15 15 13 13
7 9 11 13 14 16 18 19 21 24 26 22 8 4 3 2 10 8 4 4 3 4 4 4 5 7 7 5 2 2 3 1 3 6 4 5 6 12 12 8 3 3 6 10 13 15 15 14 13 15 15 13 13 15
8 9 11 13 14 16 17 19 19 21 10 5 5 3 6 9 5 4 4 5 6 5 5 5 9 7 2 4 4 2 1 2 4 4 4 3 3 2 1 3 5 3 5 7 8 10 12 11 12 13 13 15 13 13
8 10 11 13 14 16 17 13 15 10 7 9 10 11 4 4 5 5 5 5 5 5 6 4 2 3 3 4 4 1 2 3 4 2 4 3 0 2 6 8 5 5 5 7 10 11 12 11 10 11 13 13 13 13
9 10 12 13 14 14 10 14 15 16 15 3 3 4 3 3 5 6 5 4 4 4 3 3 4 3 2 2 4 2 5 4 1 3 4 3 4 5 7 7 5 5 4 6 9 11 11 11 11 12 11 11 12 12
9 10 12 12 11 9 13 15 16 13 5 4 4 5 6 4 5 4 7 7 5 3 7 5 1 3 2 3 2 4 4 2 3 3 4 2 3 6 6 6 7 5 4 6 8 9 11 12 11 11 11 10 11 13
8 11 13 14 5 12 15 16 16 6 4 5 4 6 4 5 9 7 6 9 7 7 6 6 6 4 3 3 2 3 3 4 3 3 1 5 1 6 7 6 6 6 4 6 7 8 9 10 11 11 12 13 12 12
7 11 1 6 12 15 17 14 4 1 3 4 5 6 5 9 9 9 8 6 4 6 8 6 5 4 4 2 3 6 2 4 2 3 4 4 1 5 5 6 4 5 6 6 7 8 8 9 10 11 12 12 12 13
6 3 3 12 15 17 11 1 1 2 3 4 4 5 7 7 10 9 9 9 7 8 6 3 4 5 1 2 3 2 2 2 7 5 6 5 3 3 5 5 6 6 7 6 7 7 7 7 9 9 11 12 12 13
3 1 7 12 12 7 1 1 1 2 3 5 7 9 10 8 9 10 8 8 6 5 6 5 7 5 4 3 2 4 3 3 4 8 8 8 3 4 5 7 7 7 7 7 6 6 6 7 8 7 9 10 10 11
5 7 10 9 6 3 2 1 2 4 4 7 6 7 8 9 9 9 8 8 6 5 5 4 6 6 5 6 9 9 9 7 7 9 8 10 6 4 4 6 8 9 9 8 6 4 5 8 7 6 7 7 8 8
7 5 3 4 4 2 3 2 2 4 4 5 8 7 11 9 7 7 7 6 6 5 6 5 6 5 4 5 7 10 9 10 9 10 8 7 10 6 6 6 7 9 9 9 7 4 5 5 6 6 7 7 8 8
3 3 1 4 1 2 3 2 3 3 5 5 7 10 8 8 8 5 3 6 3 4 5 6 9 10 12 10 7 7 10 9 9 10 10 8 9 8 4 6 7 9 9 9 8 7 5 5 6 6 7 9 8 8
3 2 1 0 1 2 3 2 5 6 4 6 7 8 7 7 6 7 9 4 5 5 5 5 8 8 10 11 10 10 10 11 11 10 11 6 7 7 6 6 8 9 10 9 9 9 8 7 6 6 8 9 8 8
2 2 2 2 2 1 4 1 4 3 4 7 7 7 5 4 5 9 3 4 3 3 6 7 10 12 13 12 13 13 13 13 10 8 8 10 9 6 8 8 9 9 9 9 9 9 9 10 8 8 8 8 9 9
2 1 2 2 2 1 2 2 2 4 3 5 5 6 7 5 6 2 4 4 7 9 11 15 10 9 9 12 9 10 11 10 11 10 9 8 9 6 6 7 6 7 9 9 10 10 11 10 11 10 10 11 9 8
3 3 3 3 3 2 3 3 3 3 5 10 4 4 4 4 2 4 4 7 10 11 11 10 9 8 8 8 9 10 12 10 10 11 10 9 9 8 7 8 9 9 8 11 12 13 12 12 10 10 11 10 11 12
4 5 6 4 3 3 1 3 2 5 6 3 2 4 2 3 3 4 6 8 9 8 10 10 9 9 9 9 11 11 12 10 10 10 11 9 7 6 6 7 8 9 10 10 13 15 16 14 13 14 12 12 9 12
4 5 5 2 1 1 2 2 3 2 3 3 3 3 3 3 4 3 5 6 6 8 9 8 8 8 9 10 10 11 11 11 11 11 11 10 9 9 7 8 9 8 9 11 13 16 17 17 16 15 13 12 12 11
3 3 5 5 2 1 3 3 3 3 2 1 4 3 3 3 3 5 4 7 8 8 9 9 9 8 8 9 9 11 12 13 14 12 3 8 9 9 13 9 5 5 10 12 13 14 15 15 16 16 16 14 12 12
4 4 3 4 4 4 5 4 3 2 1 3 3 3 3 2 4 4 5 6 7 7 9 10 11 11 10 9 9 10 10 13 19 21 18 11 10 9 13 10 5 5 7 10 7 11 17 15 16 16 16 13 12 12
6 5 4 4 4 5 4 4 1 2 2 3 3 4 4 3 3 4 6 7 8 9 9 9 10 12 13 13 14 16 10 10 11 10 10 10 10 10 12 9 6 5 1 9 11 8 10 13 12 13 13 12 12 11
5 4 3 4 3 2 2 2 2 3 3 2 2 4 6 5 4 7 8 8 7 8 9 10 11 11 13 13 14 14 13 11 17 18 15 9 10 10 12 13 10 8 5 5 8 12 15 14 14 15 16 16 16 13
5 5 4 3 2 3 3 2 4 4 4 3 3 3 4 4 3 3 6 8 8 8 10 10 10 10 11 10 11 9 10 10 12 14 18 13 13 13 11 10 10 7 6 6 5 5 13 16 14 15 15 18 17 16
4 5 3 2 2 3 4 3 3 4 3 2 2 2 3 3 4 3 4 6 6 8 9 8 8 8 9 12 13 10 11 11 14 15 18 17 18 16 11 10 10 10 12 9 9 8 11 8 10 15 17 17 17 17
Wind_Direction
308 314 332 335 336 335 334 333 337 337 333 333 331 329 328 323 321 314 291 237 228 254 281 283 275 257 241 224 256 319 305 189 282 339 315 346 293 310 277 307 298 299 321 333 297 265 4 1 335 299 291 295 294 294
308 323 329 331 328 329 330 330 328 331 327 326 325 322 318 307 306 315 268 272 240 253 279 297 283 274 261 253 251 233 287 330 314 299 23 289 279 319 314 289 340 312 355 301 251 263 289 317 279 308 315 307 310 291
313 321 325 325 324 326 327 328 328 323 324 323 319 315 310 311 304 286 283 284 263 271 270 245 247 169 220 234 215 209 233 215 226 319 304 264 271 273 282 300 305 301 322 269 309 351 327 323 274 331 321 314 302 299
313 317 321 322 320 320 323 322 322 320 322 319 315 311 304 305 299 295 275 277 273 292 281 297 225 259 299 197 199 204 240 217 270 202 249 255 269 201 267 276 289 285 323 302 293 347 332 321 332 340 326 308 289 290
305 311 316 319 318 319 320 323 321 318 318 315 313 308 301 298 300 287 273 245 230 235 297 310 300 261 223 205 220 211 220 241 278 230 225 247 263 282 244 269 250 239 327 321 329 342 326 320 322 343 315 301 294 295
295 307 314 319 318 319 320 320 320 319 318 312 310 309 302 298 294 278 282 136 202 177 264 284 331 270 197 242 239 216 215 219 226 260 228 240 263 252 283 293 289 273 291 303 319 322 317 316 332 335 311 314 332 304
293 306 312 316 318 319 320 322 321 318 315 316 311 307 302 286 235 216 334 35 142 141 247 279 271 181 238 208 148 174 192 190 212 229 225 234 236 216 250 261 299 327 315 319 324 326 325 334 332 332 330 337 323 307
291 303 307 314 317 319 322 323 318 319 319 315 313 312 311 121 149 245 244 182 157 228 235 262 264 251 164 226 193 150 177 190 201 247 236 247 232 226 258 264 301 325 320 329 342 341 345 338 350 343 346 348 339 343
284 297 303 312 316 320 321 322 323 324 320 318 313 307 203 251 196 140 127 191 188 238 258 228 258 288 162 255 178 172 221 204 178 228 223 224 240 225 249 263 340 351 356 338 338 357 358 3 347 347 358 355 347 351
271 288 299 309 316 320 321 323 323 325 321 312 286 227 198 69 323 278 164 206 181 194 228 246 227 252 304 280 258 167 182 236 228 210 199 231 256 264 272 249 287 342 11 357 352 355 360 356 350 349 1 1 357 359
268 285 297 310 317 320 322 325 325 329 300 336 335 308 340 307 252 200 244 222 175 222 207 224 222 235 233 242 268 295 11 254 251 134 256 231 252 300 51 157 155 111 37 28 4 4 4 4 1 357 2 13 3 16
272 286 298 309 316 323 323 337 342 328 330 307 293 302 278 270 228 240 222 213 223 242 180 235 169 214 254 261 244 171 245 217 260 55 253 254 292 128 145 140 139 86 52 28 14 12 10 24 19 15 9 18 13 9
277 290 298 307 318 325 342 338 333 323 308 263 232 248 237 218 235 229 225 208 223 217 106 180 207 199 166 268 242 190 234 225 69 235 256 265 109 157 148 150 135 105 64 30 26 23 25 27 33 38 16 22 11 20
278 288 298 307 317 328 335 331 329 328 275 273 278 274 244 204 240 275 313 348 5 356 296 292 335 239 161 205 306 245 199 192 242 232 241 2 69 160 161 149 147 138 94 40 39 35 32 29 42 35 30 30 33 27
284 295 300 296 294 325 328 325 318 289 270 266 257 253 239 331 315 296 338 345 344 306 305 315 279 222 172 238 207 321 234 229 220 254 338 29 57 159 161 162 138 132 108 65 45 47 45 40 46 46 37 34 35 37
306 295 115 349 332 327 321 314 299 242 263 256 251 284 295 310 332 336 332 330 354 324 290 246 272 267 222 205 202 225 227 216 295 311 338 16 296 195 173 164 149 122 110 87 57 51 61 53 51 59 57 48 43 43
286 229 23 329 324 316 322 288 338 252 295 280 268 306 301 314 306 314 323 321 332 297 291 309 263 244 4 204 253 269 238 28 325 346 352 352 287 222 190 169 167 145 122 106 92 76 77 71 70 64 62 55 58 59
250 349 325 321 327 315 341 133 260 240 259 258 288 320 326 312 296 296 305 307 318 311 312 297 315 263 264 239 196 19 1 292 324 356 335 331 274 224 210 190 178 156 143 127 105 99 100 90 77 76 80 79 76 69
323 320 325 321 330 313 323 275 267 287 282 311 296 317 309 302 291 282 281 285 282 280 280 260 258 267 297 25 360 349 353 349 336 304 293 296 293 234 212 188 172 164 155 140 134 92 76 69 78 73 74 73 69 76
293 305 6 303 278 254 254 210 227 271 283 325 297 314 327 308 305 294 286 291 277 224 215 239 287 19 341 335 324 314 322 318 317 317 327 349 325 292 216 195 184 168 154 144 124 127 119 105 92 76 69 77 83 81
238 67 315 289 118 247 292 302 255 276 301 289 312 315 327 328 313 313 20 300 236 11 358 13 336 330 333 327 337 325 309 316 314 304 308 293 288 308 259 201 189 178 169 160 159 131 158 118 112 123 106 90 91 84
100 228 331 97 244 188 264 230 300 319 275 293 297 323 320 333 338 3 328 25 47 22 355 339 334 325 324 339 336 332 323 324 316 310 304 287 270 270 266 219 196 193 181 171 163 157 136 140 138 123 111 120 128 111
160 211 202 210 216 160 260 268 264 279 292 326 315 321 347 358 346 345 62 45 43 335 342 343 338 336 337 338 346 345 342 334 320 317 315 314 305 275 264 240 215 190 187 170 158 150 142 127 143 139 126 124 121 126
124 236 219 194 192 255 266 251 237 273 284 317 324 322 0 353 341 344 62 29 356 0 2 355 342 338 332 341 340 338 340 332 319 308 310 310 303 284 267 245 216 230 183 160 161 151 147 151 138 154 146 144 143 132
182 169 201 224 211 224 231 258 306 308 291 335 316 338 352 324 315 62 27 5 351 356 350 340 337 338 331 326 326 324 327 330 316 304 299 286 283 276 255 235 204 210 184 166 162 159 160 152 162 156 154 152 147 141
204 175 193 182 161 226 293 289 248 311 320 310 299 336 354 316 37 47 14 349 346 338 337 334 337 336 334 335 325 324 326 325 310 293 286 271 295 296 260 210 193 198 184 183 170 168 163 164 161 161 159 148 129 145
183 197 177 212 286 296 267 261 297 272 274 292 2 324 353 28 60 43 359 21 327 329 322 331 344 338 329 330 327 323 324 325 307 277 271 285 278 269 269 250 223 192 183 192 179 176 170 167 162 163 156 153 160 157
235 199 175 150 179 210 249 240 217 236 263 347 298 2 51 36 16 357 357 344 331 329 344 346 347 354 347 341 334 333 340 341 342 359 36 17 6 19 349 309 257 155 183 186 183 177 174 172 166 161 160 160 157 157
198 168 154 197 188 202 216 217 230 203 357 296 319 60 107 78 15 344 333 333 352 357 0 358 360 355 2 357 358 355 356 1 4 5 8 2 354 349 337 324 299 199 183 170 167 174 176 171 167 162 159 155 149 149
172 167 166 186 202 214 194 199 229 70 340 24 89 120 109 104 54 21 6 359 7 7 5 359 7 6 4 1 352 354 8 9 6 356 342 341 333 321 317 330 345 6 165 159 164 127 111 133 128 144 147 146 147 145
138 151 181 206 237 206 149 165 115 136 175 130 129 192 137 144 133 65 25 355 359 12 8 4 10 15 4 3 4 352 348 356 353 352 353 341 339 340 342 346 2 13 336 127 149 159 151 156 157 156 155 152 151 154
170 182 192 212 208 89 51 168 170 190 159 171 147 138 140 158 103 65 20 4 10 12 6 1 5 10 7 359 4 5 348 343 351 354 0 359 355 351 358 355 2 22 36 38 57 129 169 157 155 154 154 151 154 150
179 177 210 254 234 190 152 214 193 151 145 138 118 88 76 74 88 60 39 28 10 8 359 355 349 4 6 12 9 4 4 2 2 7 5 10 18 12 11 12 22 32 48 53 56 59 49 85 139 143 140 140 134 131